Weather in Barashevo

Russia / Republic of Mordovia     54°32′06″N   42°52′47″E
temp.,
°C
wind,
m/s
gust,
m/s
humid.,
%
clouds,
%
prec.,
mm/h
press.,
hPa
HPBL,
m
27 september, mon
mon2700:00+9nne31094100 0.5 1008530
03:00+8n51294100 0.6 1010567
06:00+8n51290100 0.6 1012641
09:00+8n41087100 0.6 1014562
12:00+11n5878100 0.1 1015962
15:00+10n4984100 0.4 1016949
18:00+8nne4992100 0.8 1017737
21:00+6ne4793100 1.9 10191009
28 september, tue
tue2800:00+5ne4893100 0.3 1021831
03:00+5ne4897100 0.4 1023785
06:00+4ne4887100 0.0 1025893
09:00+4ne4985100 0.0 1027950
12:00+8ene57585 0.0 10281135
15:00+9ne46455 0.0 10281354
18:00+5nne266715 0.0 1030129
21:00+3ne27770 0.0 1032148
29 september, wed
wed2900:00+2nne23815 0.0 103255
03:00+1nne248428 0.0 103374
06:00+1n268441 0.0 1034123
09:00+6nne356468 0.0 1034395
12:00+9nne244763 0.0 10331181
15:00+10nne3445100 0.0 10331385
18:00+6n2366100 0.0 103343
21:00+4nne22745 0.0 103428
30 september, thu
thu3000:00+3nne117766 0.0 103410
03:00+2n11805 0.0 103510
06:00+2n11835 0.0 103510
09:00+7nne12625 0.0 1036279
12:00+11nne11495 0.0 1035969
15:00+12n124811 0.0 10341354
18:00+7wnw1168100 0.0 103410
21:00+6wnw2273100 0.0 103516
1 october, fri
fri100:00+5wnw228110 0.0 103516
03:00+6w2578100 0.0 1035144
06:00+7wnw2782100 0.0 1035205
09:00+9wnw3680100 0.0 1035270
12:00+12nw356993 0.0 1035573
15:00+13nw346664 0.0 1034868
18:00+9nw228650 0.0 103434
21:00+9nw128758 0.0 103533